Regional Weather Roundup
Issued by NWS

Home | Current Version | Previous Version | Text Only | Print | Product List | Glossary Off
Versions: 1 2 3 4 5 6 7 8 9 10 11 12 13 14 15 16 17 18 19 20 21 22 23 24 25 26 27 28 29 30 31 32 33 34 35 36 37 38 39 40 41 42 43 44 45 46 47 48 49 50

000
ASUS44 KMEG 192200
RWRTN
TENNESSEE HOURLY STATE WEATHER ROUNDUP
NATIONAL WEATHER SERVICE MEMPHIS TN
400 PM CST FRI JAN 19 2018

TNZ002-004-019-021-049-052-054-088>092-192300-
WEST TENNESSEE

CITY           SKY/WX    TMP DP  RH WIND       PRES   REMARKS
MEMPHIS INTL   CLOUDY    42  20  41 S16       30.20F
NWS MEMPHIS      N/A     42 N/A N/A MISG        N/A
JACKSON        CLOUDY    43  21  41 S10       30.19S
DYERSBURG      CLOUDY    43  20  39 S10       30.16S
$$

TNZ008-025-027-028-033-062-065-066-192300-
NORTH MIDDLE TENNESSEE

CITY           SKY/WX    TMP DP  RH WIND       PRES   REMARKS
NASHVILLE      FAIR      48  19  31 S10       30.19S
CLARKSVILLE    MOCLDY    45  15  30 SW13      30.15S
SMYRNA         FAIR      47  20  34 S8        30.21S
CROSSVILLE     FAIR      44  12  27 VRB5      30.17F
$$

TNZ061-075-076-078-094-096-097-192300-
SOUTH MIDDLE TENNESSEE

CITY           SKY/WX    TMP DP  RH WIND       PRES   REMARKS
WINCHESTER     CLEAR     46  12  25 SW5       30.22S
$$

TNZ017-018-042-046-047-192300-
NORTHEAST TENNESSEE

CITY           SKY/WX    TMP DP  RH WIND       PRES   REMARKS
TRI CITIES     FAIR      43  13  29 SW5       30.18F
$$

TNZ012-013-036-069-073-074-192300-
CENTRAL EAST TENNESSEE

CITY           SKY/WX    TMP DP  RH WIND       PRES   REMARKS
KNOXVILLE      FAIR      45  20  36 SW8       30.20S
OAK RIDGE      FAIR      45  13  27 S5        30.22S
$$

TNZ083-085-099-192300-
SOUTHEAST TENNESSEE

CITY           SKY/WX    TMP DP  RH WIND       PRES   REMARKS
CHATTANOOGA    FAIR      50  10  20 CALM      30.23S
$$

SKY/WX REPORTED AS FAIR MEANS FEW OR NO CLOUDS BELOW
12 THOUSAND FEET.





USA.gov is the U.S. government's official web portal to all federal, state and local government web resources and services.